GW6849 Weather Reports


time (UTC)temp
F
wind
direction
speed
knots
gust
knots
rain 1hr
in
rain 24hr
in
rain mn
in
humidity
%
barometer
mb
20260505122438 46 180 0.0 0.0 0.00 0.00 0.00 98 1015.3
20260505121934 46 180 0.0 0.0 0.00 0.00 0.00 99 1015.4
20260505121432 46 180 0.0 0.0 0.00 0.00 0.00 99 1015.4
20260505120927 45 180 0.0 0.0 0.00 0.00 0.00 99 1015.3
20260505120424 45 180 0.0 0.0 0.00 0.00 0.00 98 1015.3
20260505115923 45 180 0.0 0.0 0.00 0.00 0.00 98 1015.4
20260505115420 45 180 0.0 0.0 0.00 0.00 0.00 98 1015.4
20260505114918 46 181 0.0 0.0 0.00 0.00 0.00 99 1015.4
20260505114414 45 181 0.0 0.0 0.00 0.00 0.00 99 1015.4
20260505113910 44 180 0.0 0.0 0.00 0.00 0.00 98 1015.4
20260505113407 44 180 0.0 0.0 0.00 0.00 0.00 98 1015.1
20260505112903 45 180 0.0 0.0 0.00 0.00 0.00 98 1015.3
20260505112400 46 181 0.0 0.0 0.00 0.00 0.00 98 1015.3
20260505111856 45 180 0.0 0.0 0.00 0.00 0.00 98 1015.4
20260505111351 45 180 0.0 0.0 0.00 0.00 0.00 98 1015.2
20260505110847 46 181 0.0 0.0 0.00 0.00 0.00 98 1015.2
20260505110345 46 180 0.0 0.0 0.00 0.00 0.00 98 1015.3
20260505101815 45 180 0.0 0.0 0.00 0.00 0.00 98 1014.8
20260505101310 45 180 0.0 0.0 0.00 0.00 0.00 98 1014.7
20260505100806 46 181 0.0 0.0 0.00 0.00 0.00 98 1014.7
20260505100303 45 181 0.0 0.0 0.00 0.00 0.00 98 1014.8
20260505095759 45 181 0.0 0.0 0.00 0.00 0.00 98 1014.7
20260505095257 45 181 0.0 0.0 0.00 0.00 0.00 97 1014.8
20260505094752 46 180 0.0 0.0 0.00 0.00 0.00 98 1014.8
20260505094249 46 180 0.0 0.0 0.00 0.00 0.00 98 1014.9
20260505093745 46 180 0.0 0.0 0.00 0.00 0.00 98 1014.6
20260505093243 46 180 0.0 0.0 0.00 0.00 0.00 97 1014.8
20260505092739 46 180 0.0 0.0 0.00 0.00 0.00 97 1014.8
20260505092238 46 180 0.0 0.0 0.00 0.00 0.00 97 1014.6
20260505091735 46 180 0.0 0.0 0.00 0.00 0.00 97 1014.7
20260505091233 45 180 0.0 0.0 0.00 0.00 0.00 97 1014.8
20260505090730 45 180 0.0 0.0 0.00 0.00 0.00 97 1014.7
20260505090229 45 180 0.0 0.0 0.00 0.00 0.00 97 1014.8
20260505085725 46 180 0.0 0.0 0.00 0.00 0.00 97 1014.5
20260505085224 46 180 0.0 0.0 0.00 0.00 0.00 97 1014.7
20260505084721 46 181 0.0 0.0 0.00 0.00 0.00 97 1014.7
20260505084220 46 181 0.0 0.0 0.00 0.00 0.00 97 1014.5
20260505083716 46 181 0.0 0.0 0.00 0.00 0.00 96 1014.4
20260505083213 46 181 0.0 0.0 0.00 0.00 0.00 96 1014.4
20260505082709 46 181 0.0 0.0 0.00 0.00 0.00 96 1014.5
20260505082206 47 180 0.0 0.0 0.00 0.00 0.00 97 1014.6
20260505081702 47 180 0.0 0.0 0.00 0.00 0.00 97 1014.5
20260505081159 46 181 0.0 0.0 0.00 0.00 0.00 96 1014.4
20260505080656 46 181 0.0 0.0 0.00 0.00 0.00 96 1014.4
20260505080152 47 181 0.0 0.0 0.00 0.00 0.00 96 1014.0
20260505075648 46 181 0.0 0.0 0.00 0.00 0.00 96 1014.2
20260505075145 46 181 0.0 0.0 0.00 0.00 0.00 95 1014.3
20260505074642 47 181 0.0 0.0 0.00 0.00 0.00 95 1014.2
20260505074139 47 181 0.0 0.0 0.00 0.00 0.00 95 1014.0
20260505073637 48 181 0.0 0.0 0.00 0.00 0.00 95 1014.2
20260505073135 48 181 0.0 0.0 0.00 0.00 0.00 94 1014.2
20260505072630 48 181 0.0 0.0 0.00 0.00 0.00 91 1014.0
20260505072127 48 181 0.0 0.0 0.00 0.00 0.00 93 1014.0
20260505071623 48 181 0.0 0.0 0.00 0.00 0.00 91 1014.0
20260505071121 48 181 0.0 0.0 0.00 0.00 0.00 94 1013.9
20260505070618 48 181 0.0 0.0 0.00 0.00 0.00 93 1014.0
20260505070114 48 180 0.0 0.0 0.00 0.00 0.00 94 1013.8
20260505065610 49 180 0.0 0.0 0.00 0.00 0.00 94 1013.9
20260505065107 49 180 0.0 0.0 0.00 0.00 0.00 94 1014.0
20260505064603 49 180 0.0 0.0 0.00 0.00 0.00 94 1013.8
20260505064102 49 180 0.0 0.0 0.00 0.00 0.00 94 1014.0
20260505063559 49 180 0.0 0.0 0.00 0.00 0.00 94 1013.9
20260505063055 49 180 0.0 0.0 0.00 0.00 0.00 94 1013.8
20260505062551 49 180 0.0 0.0 0.00 0.00 0.00 94 1014.0
20260505062049 49 180 0.0 0.0 0.00 0.00 0.00 93 1013.9
20260505061546 50 180 0.0 0.0 0.00 0.00 0.00 93 1013.9
20260505061044 50 180 0.0 0.0 0.00 0.00 0.00 93 1014.0
20260505060541 50 180 0.0 0.0 0.00 0.00 0.00 93 1013.8
20260505060037 50 181 0.0 0.0 0.00 0.00 0.00 93 1013.9
20260505055533 50 181 0.0 0.0 0.00 0.00 0.00 93 1013.8
20260505055030 50 181 0.0 0.0 0.00 0.00 0.00 92 1013.8
20260505054527 50 180 0.0 0.0 0.00 0.00 0.00 92 1013.8
20260505054025 50 181 0.0 0.0 0.00 0.00 0.00 92 1013.8
20260505053522 51 181 0.0 0.0 0.00 0.00 0.00 92 1013.9
20260505053019 51 181 0.0 0.0 0.00 0.00 0.00 91 1013.6
20260505052516 51 181 0.0 0.0 0.00 0.00 0.00 91 1013.8
20260505052013 51 181 0.0 0.0 0.00 0.00 0.00 91 1013.9
20260505051510 51 181 0.0 0.0 0.00 0.00 0.00 91 1013.8
20260505051008 52 180 0.0 0.0 0.00 0.00 0.00 90 1013.8
20260505050506 52 181 0.0 0.0 0.00 0.00 0.00 90 1013.7
20260505041433 54 181 0.0 0.0 0.00 0.00 0.00 87 1013.1
20260505040931 54 181 0.0 0.0 0.00 0.00 0.00 87 1012.8
20260505040428 55 181 0.0 0.0 0.00 0.00 0.00 86 1012.6
20260505035925 55 181 0.0 0.0 0.00 0.00 0.00 85 1012.6
20260505035421 55 181 0.0 0.0 0.00 0.00 0.00 85 1012.4
20260505034918 56 181 0.0 0.0 0.00 0.00 0.00 85 1012.2
20260505034414 56 181 0.0 0.0 0.00 0.00 0.00 84 1012.4
20260505033912 56 181 0.0 0.0 0.00 0.00 0.00 84 1012.3
20260505033408 57 181 0.0 0.0 0.00 0.00 0.00 83 1012.2
20260505032907 57 181 0.0 0.0 0.00 0.00 0.00 82 1012.3
20260505032403 58 181 0.0 0.0 0.00 0.00 0.00 80 1012.2
20260505031900 58 181 0.0 0.0 0.00 0.00 0.00 81 1012.2
20260505031357 59 181 0.0 0.0 0.00 0.00 0.00 79 1012.0
20260505030854 59 181 0.0 0.0 0.00 0.00 0.00 79 1011.9
20260505030349 60 181 0.0 0.0 0.00 0.00 0.00 78 1011.8
20260505025845 60 181 0.0 0.0 0.00 0.00 0.00 77 1011.9
20260505025343 60 181 0.0 0.0 0.00 0.00 0.00 77 1011.8
20260505024842 61 181 0.0 0.0 0.00 0.00 0.00 76 1011.7
20260505024339 61 181 0.0 0.0 0.00 0.00 0.00 77 1011.6
20260505023836 61 181 0.0 0.0 0.00 0.00 0.00 77 1011.5
20260505023332 62 137 0.0 0.0 0.00 0.00 0.00 75 1011.5
20260505022830 62 95 0.0 0.0 0.00 0.00 0.00 75 1011.6
20260505022327 63 95 0.0 0.0 0.00 0.00 0.00 73 1011.4
20260505021824 63 237 0.0 0.0 0.00 0.00 0.00 72 1011.5
20260505021321 64 147 2.6 2.6 0.00 0.00 0.00 68 1011.5
20260505020816 64 134 0.0 0.0 0.00 0.00 0.00 72 1011.7
20260505020312 64 124 0.9 0.9 0.00 0.00 0.00 72 1011.6
20260505015809 64 145 1.7 2.6 0.00 0.00 0.00 68 1011.6
20260505015306 65 348 0.0 0.0 0.00 0.00 0.00 69 1011.5
20260505014804 66 170 0.9 1.7 0.00 0.00 0.00 65 1011.5
20260505014301 66 149 1.7 2.6 0.00 0.00 0.00 69 1011.3
20260505013757 66 93 0.9 1.7 0.00 0.00 0.00 65 1011.5
20260505013254 67 169 0.0 0.9 0.00 0.00 0.00 63 1011.5
20260505012753 68 129 2.6 2.6 0.00 0.00 0.00 64 1011.5
20260505012250 69 100 0.0 0.0 0.00 0.00 0.00 61 1011.6
20260505011745 70 349 0.0 0.9 0.00 0.00 0.00 59 1011.6
20260505011242 72 150 2.6 2.6 0.00 0.00 0.00 58 1011.8
20260505010738 72 266 0.0 0.9 0.00 0.00 0.00 59 1011.5
20260505010234 73 265 1.7 1.7 0.00 0.00 0.00 57 1011.7
20260505005731 75 306 0.0 0.9 0.00 0.00 0.00 54 1011.6
20260505005228 73 266 0.0 0.9 0.00 0.00 0.00 56 1011.7
20260505004725 73 279 2.6 2.6 0.00 0.00 0.00 56 1011.8
20260505004222 70 255 0.9 1.7 0.00 0.00 0.00 60 1011.6
20260505003719 72 222 2.6 3.5 0.00 0.00 0.00 58 1011.7
20260505003217 73 300 0.0 0.0 0.00 0.00 0.00 56 1011.7
20260505002713 73 320 0.9 2.6 0.00 0.00 0.00 56 1011.9
20260505002210 71 231 0.9 0.9 0.00 0.00 0.00 59 1011.8
20260505001708 71 164 0.9 2.6 0.00 0.00 0.00 59 1011.7
20260505001205 72 307 1.7 2.6 0.00 0.00 0.00 58 1011.8
20260505000702 70 120 1.7 1.7 0.00 0.00 0.00 58 1011.8
20260505000200 69 153 1.7 2.6 0.00 0.00 0.00 61 1012.0
20260504235656 69 206 1.7 1.7 0.00 0.00 0.00 61 1012.0
20260504235152 71 259 3.5 5.2 0.00 0.00 0.00 57 1012.0
20260504234650 71 267 3.5 5.2 0.00 0.00 0.00 56 1012.1
20260504234147 70 256 2.6 2.6 0.00 0.00 0.00 59 1012.0
20260504233643 70 279 3.5 3.5 0.00 0.00 0.00 59 1011.9
20260504233139 71 257 0.9 1.7 0.00 0.00 0.00 58 1012.1
20260504232637 70 283 6.1 8.7 0.00 0.00 0.00 58 1012.0
20260504232133 70 28 1.7 2.6 0.00 0.00 0.00 61 1012.1
20260504231630 71 293 2.6 3.5 0.00 0.00 0.00 57 1012.2
20260504231126 71 248 1.7 2.6 0.00 0.00 0.00 58 1012.1
20260504230622 70 239 3.5 3.5 0.00 0.00 0.00 58 1012.2
20260504230122 71 210 7.0 9.6 0.00 0.00 0.00 57 1012.3
20260504225619 71 239 3.5 6.1 0.00 0.00 0.00 60 1012.1
20260504225115 71 261 5.2 7.0 0.00 0.00 0.00 59 1012.0
20260504224612 71 248 1.7 2.6 0.00 0.00 0.00 60 1012.3
20260504224109 72 308 7.0 8.7 0.00 0.00 0.00 59 1012.2
20260504223606 71 238 5.2 6.1 0.00 0.00 0.00 58 1012.3
20260504223102 70 301 1.7 1.7 0.00 0.00 0.00 59 1012.6
20260504222559 72 307 7.8 9.6 0.00 0.00 0.00 58 1012.4
20260504222056 71 262 3.5 3.5 0.00 0.00 0.00 58 1012.4
20260504221553 71 268 1.7 2.6 0.00 0.00 0.00 59 1012.3
20260504221050 72 302 5.2 7.0 0.00 0.00 0.00 57 1012.5
20260504220546 71 258 2.6 3.5 0.00 0.00 0.00 59 1012.7
20260504220044 70 259 1.7 2.6 0.00 0.00 0.00 59 1012.7
20260504215540 73 275 0.0 0.9 0.00 0.00 0.00 58 1012.7
20260504215038 71 286 0.9 1.7 0.00 0.00 0.00 57 1012.9
20260504214533 73 204 5.2 5.2 0.00 0.00 0.00 57 1012.8
20260504214030 70 280 1.7 1.7 0.00 0.00 0.00 59 1012.8
20260504213526 70 313 2.6 7.0 0.00 0.00 0.00 58 1012.9
20260504213024 70 250 6.1 7.8 0.00 0.00 0.00 58 1012.9
20260504212519 71 265 5.2 7.0 0.00 0.00 0.00 60 1013.0
20260504212017 71 262 1.7 2.6 0.00 0.00 0.00 59 1013.0
20260504211514 71 308 1.7 3.5 0.00 0.00 0.00 58 1013.0
20260504211011 72 346 0.9 0.9 0.00 0.00 0.00 58 1013.3
20260504210508 69 325 0.9 1.7 0.00 0.00 0.00 59 1013.2
20260504210005 70 293 2.6 3.5 0.00 0.00 0.00 59 1013.2
20260504205502 71 280 0.0 0.9 0.00 0.00 0.00 59 1013.3
20260504205000 70 313 3.5 5.2 0.00 0.00 0.00 58 1013.3
20260504204458 71 301 0.9 1.7 0.00 0.00 0.00 60 1013.4
20260504203957 69 7 1.7 2.6 0.00 0.00 0.00 59 1013.3
20260504203454 70 358 0.0 0.0 0.00 0.00 0.00 61 1013.5
20260504202950 70 316 0.0 0.9 0.00 0.00 0.00 63 1013.6
20260504202447 70 289 0.0 0.0 0.00 0.00 0.00 59 1013.4
20260504201944 69 194 2.6 3.5 0.00 0.00 0.00 62 1013.5
20260504201441 69 238 0.9 1.7 0.00 0.00 0.00 61 1013.4
20260504200938 69 242 2.6 3.5 0.00 0.00 0.00 61 1013.4
20260504200435 69 308 0.0 0.0 0.00 0.00 0.00 61 1013.4
20260504195932 68 266 0.9 1.7 0.00 0.00 0.00 63 1013.6
20260504195427 68 285 2.6 5.2 0.00 0.00 0.00 63 1013.6
20260504194924 68 291 2.6 5.2 0.00 0.00 0.00 61 1013.6
20260504194420 67 315 1.7 2.6 0.00 0.00 0.00 67 1013.4
20260504193916 67 254 1.7 2.6 0.00 0.00 0.00 63 1013.5
20260504193414 66 228 3.5 5.2 0.00 0.00 0.00 64 1013.5
20260504192913 68 285 3.5 5.2 0.00 0.00 0.00 63 1013.4
20260504192409 66 306 4.3 6.1 0.00 0.00 0.00 63 1013.5
20260504191908 67 281 2.6 3.5 0.00 0.00 0.00 64 1013.7
20260504191406 65 312 1.7 2.6 0.00 0.00 0.00 68 1013.7
20260504190901 67 258 1.7 2.6 0.00 0.00 0.00 65 1013.8
20260504190357 67 315 1.7 2.6 0.00 0.00 0.00 61 1013.8
20260504185854 68 275 0.9 1.7 0.00 0.00 0.00 61 1013.7
20260504185351 66 307 0.9 1.7 0.00 0.00 0.00 66 1013.8
20260504184847 67 244 1.7 1.7 0.00 0.00 0.00 64 1013.8
20260504184343 65 350 0.0 0.0 0.00 0.00 0.00 67 1013.9
20260504183839 65 264 4.3 5.2 0.00 0.00 0.00 68 1013.8
20260504183336 66 319 1.7 2.6 0.00 0.00 0.00 68 1013.9
20260504182834 64 303 5.2 7.0 0.00 0.00 0.00 68 1013.7
20260504182331 66 299 3.5 6.1 0.00 0.00 0.00 65 1013.8
20260504181828 65 310 0.0 0.9 0.00 0.00 0.00 66 1013.7
20260504181325 66 237 1.7 2.6 0.00 0.00 0.00 67 1013.9
20260504180824 67 323 0.0 0.9 0.00 0.00 0.00 62 1013.7
20260504180322 65 269 0.0 0.9 0.00 0.00 0.00 65 1013.9
20260504175820 64 291 0.0 0.9 0.00 0.00 0.00 66 1013.7
20260504175316 63 263 0.0 0.0 0.00 0.00 0.00 70 1013.8
20260504174815 63 310 4.3 5.2 0.00 0.00 0.00 73 1013.9
20260504174312 63 253 1.7 1.7 0.00 0.00 0.00 69 1013.9
20260504173808 62 253 0.9 1.7 0.00 0.00 0.00 71 1013.9
20260504173305 63 11 0.9 1.7 0.00 0.00 0.00 71 1013.9
20260504172802 61 311 0.0 0.9 0.00 0.00 0.00 73 1013.9
20260504172259 59 351 0.9 0.9 0.00 0.00 0.00 78 1014.1
20260504171754 61 303 0.9 0.9 0.00 0.00 0.00 76 1014.0
20260504171252 60 320 2.6 2.6 0.00 0.00 0.00 75 1014.0
20260504170749 60 344 0.0 0.0 0.00 0.00 0.00 78 1013.9
20260504170246 58 335 0.9 1.7 0.00 0.00 0.00 80 1014.1
20260504160204 56 346 0.0 0.9 0.00 0.00 0.00 83 1014.0
20260504151132 53 308 0.0 0.0 0.00 0.00 0.00 90 1013.8
20260504150630 53 308 0.0 0.9 0.00 0.00 0.00 91 1013.9
20260504150126 52 309 0.0 0.9 0.00 0.00 0.00 92 1013.7
20260504141055 50 115 0.0 0.0 0.00 0.00 0.00 92 1013.2
20260504140552 50 114 0.0 0.0 0.00 0.00 0.00 91 1013.1
20260504130516 46 115 0.0 0.0 0.00 0.00 0.00 97 1012.1